• In India
  • List of Countries
  • For 7 days
  • Water Temperature
  • Satellite Maps
  • Weather Map
  • Weather Widgets
  • user-avatar
    Login

    Hourly Weather Garmisch-Partenkirchen

    Today, 23 January, Tuesday

    Time Temperature Precipitation Wind Pressure Humidity
    00:00 +3°C° 0.6 mm 2 mps 673 mmHg 98%
    01:00 +3°C° 0 mm 2 mps 674 mmHg 99%
    02:00 +2°C° 0.6 mm 2 mps 674 mmHg 98%
    03:00 +2°C° 0.6 mm 2 mps 675 mmHg 98%
    04:00 +2°C° 0.6 mm 2 mps 676 mmHg 98%
    05:00 +2°C° 0.6 mm 2 mps 676 mmHg 98%
    06:00 +1°C° 0.6 mm 2 mps 677 mmHg 97%
    07:00 +1°C° 0 mm 2 mps 677 mmHg 97%
    08:00 +1°C° 0.2 mm 2 mps 678 mmHg 97%
    09:00 +1°C° 0.2 mm 2 mps 678 mmHg 97%
    10:00 +2°C° 0.2 mm 2 mps 679 mmHg 97%
    11:00 +2°C° 0 mm 2 mps 679 mmHg 96%
    12:00 +2°C° 0 mm 2 mps 679 mmHg 96%
    13:00 +4°C° 0 mm 1 mps 679 mmHg 96%
    14:00 +4°C° 0 mm 1 mps 679 mmHg 95%
    15:00 +3°C° 0 mm 1 mps 679 mmHg 95%
    16:00 +3°C° 0 mm 1 mps 679 mmHg 95%
    17:00 +2°C° 0 mm 1 mps 680 mmHg 90%
    18:00 +1°C° 0 mm 1 mps 680 mmHg 86%
    19:00 -2°C° 0 mm 2 mps 680 mmHg 82%
    20:00 -3°C° 0 mm 2 mps 680 mmHg 77%
    21:00 -3°C° 0 mm 2 mps 680 mmHg 73%
    22:00 -3°C° 0 mm 2 mps 680 mmHg 69%
    23:00 -3°C° 0 mm 2 mps 680 mmHg 68%

    Tomorrow, 24 January, Wednesday

    Time Temperature Precipitation Wind Pressure Humidity
    00:00 -3°C° 0 mm 2 mps 680 mmHg 67%
    01:00 -3°C° 0 mm 2 mps 681 mmHg 66%
    02:00 -3°C° 0 mm 2 mps 681 mmHg 66%
    03:00 -3°C° 0 mm 2 mps 680 mmHg 65%
    04:00 -3°C° 0 mm 2 mps 680 mmHg 65%
    05:00 -3°C° 0 mm 2 mps 680 mmHg 65%
    06:00 -2°C° 0 mm 2 mps 680 mmHg 65%
    07:00 -2°C° 0 mm 2 mps 680 mmHg 65%
    08:00 -1°C° 0 mm 2 mps 681 mmHg 67%
    09:00 +2°C° 0 mm 2 mps 681 mmHg 70%
    10:00 +3°C° 0 mm 2 mps 681 mmHg 72%
    11:00 +4°C° 0 mm 2 mps 680 mmHg 78%
    12:00 +5°C° 0 mm 2 mps 680 mmHg 83%
    13:00 +6°C° 0 mm 2 mps 680 mmHg 88%
    14:00 +5°C° 0 mm 2 mps 679 mmHg 87%
    15:00 +5°C° 0 mm 2 mps 679 mmHg 86%
    16:00 +4°C° 0 mm 2 mps 679 mmHg 85%
    17:00 +3°C° 0 mm 2 mps 679 mmHg 82%
    18:00 +2°C° 0 mm 2 mps 679 mmHg 79%
    19:00 +1°C° 0 mm 2 mps 679 mmHg 76%
    20:00 +1°C° 0 mm 2 mps 679 mmHg 75%
    21:00 +1°C° 0 mm 2 mps 678 mmHg 74%
    22:00 -1°C° 0 mm 3 mps 678 mmHg 73%
    23:00 -1°C° 0 mm 2 mps 678 mmHg 73%

    Day after tomorrow, 25 January, Thursday

    Time Temperature Precipitation Wind Pressure Humidity
    00:00 -1°C° 0 mm 2 mps 678 mmHg 72%
    01:00 -1°C° 0 mm 2 mps 678 mmHg 72%
    02:00 -1°C° 0 mm 2 mps 678 mmHg 71%
    03:00 -1°C° 0 mm 2 mps 677 mmHg 71%
    04:00 -1°C° 0 mm 2 mps 677 mmHg 71%
    05:00 -1°C° 0 mm 2 mps 677 mmHg 72%
    06:00 -1°C° 0 mm 2 mps 677 mmHg 72%
    07:00 -1°C° 0 mm 2 mps 677 mmHg 73%
    08:00 +1°C° 0 mm 2 mps 676 mmHg 75%
    09:00 +2°C° 0 mm 2 mps 676 mmHg 77%
    10:00 +3°C° 0 mm 2 mps 676 mmHg 79%
    11:00 +4°C° 0 mm 2 mps 676 mmHg 82%
    12:00 +5°C° 0 mm 2 mps 675 mmHg 85%
    13:00 +5°C° 0 mm 2 mps 674 mmHg 89%
    14:00 +5°C° 0 mm 2 mps 674 mmHg 89%
    15:00 +5°C° 0 mm 2 mps 674 mmHg 90%
    16:00 +4°C° 0 mm 2 mps 673 mmHg 90%
    17:00 +3°C° 0 mm 2 mps 673 mmHg 89%
    18:00 +3°C° 0 mm 2 mps 673 mmHg 88%
    19:00 +2°C° 0 mm 2 mps 673 mmHg 87%
    20:00 +2°C° 0 mm 2 mps 673 mmHg 87%
    21:00 +1°C° 0 mm 2 mps 673 mmHg 86%
    22:00 +1°C° 0 mm 2 mps 673 mmHg 86%
    23:00 +1°C° 0 mm 2 mps 672 mmHg 86%

    26 January, Friday

    Time Temperature Precipitation Wind Pressure Humidity
    00:00 +1°C° 0 mm 2 mps 672 mmHg 86%
    01:00 +1°C° 0 mm 2 mps 672 mmHg 85%
    02:00 +1°C° 0 mm 2 mps 672 mmHg 85%
    03:00 +1°C° 0 mm 2 mps 671 mmHg 85%
    04:00 +1°C° 0 mm 2 mps 671 mmHg 85%
    05:00 +1°C° 0 mm 2 mps 671 mmHg 86%
    06:00 -1°C° 0 mm 2 mps 671 mmHg 87%
    07:00 -1°C° 0 mm 2 mps 671 mmHg 88%
    08:00 +1°C° 0 mm 2 mps 672 mmHg 89%
    09:00 +1°C° 0 mm 2 mps 672 mmHg 91%
    10:00 +3°C° 0 mm 1 mps 672 mmHg 93%
    11:00 +2°C° 0.1 mm 2 mps 673 mmHg 95%
    12:00 +3°C° 0.1 mm 2 mps 673 mmHg 96%
    13:00 +3°C° 0.1 mm 2 mps 673 mmHg 97%
    14:00 +3°C° 0.6 mm 2 mps 673 mmHg 97%
    15:00 +2°C° 0.6 mm 2 mps 674 mmHg 97%
    16:00 +2°C° 0.6 mm 2 mps 674 mmHg 96%
    17:00 +2°C° 1.2 mm 1 mps 674 mmHg 97%
    18:00 +2°C° 1.2 mm 1 mps 675 mmHg 97%
    19:00 +2°C° 1.2 mm 1 mps 675 mmHg 97%
    20:00 +1°C° 1.1 mm 1 mps 675 mmHg 97%
    21:00 +1°C° 1.1 mm 1 mps 676 mmHg 97%
    22:00 +1°C° 1.1 mm 1 mps 676 mmHg 97%
    23:00 +1°C° 0.9 mm 1 mps 676 mmHg 97%

    27 January, Saturday

    Time Temperature Precipitation Wind Pressure Humidity
    00:00 +1°C° 0.9 mm 1 mps 676 mmHg 97%
    01:00 0°C° 0.9 mm 1 mps 677 mmHg 97%
    02:00 0°C° 0.8 mm 1 mps 677 mmHg 97%
    03:00 0°C° 0.8 mm 1 mps 677 mmHg 97%
    04:00 0°C° 0.8 mm 1 mps 677 mmHg 97%
    05:00 0°C° 0.9 mm 1 mps 677 mmHg 97%
    06:00 0°C° 0.9 mm 1 mps 678 mmHg 97%
    07:00 0°C° 0.9 mm 1 mps 678 mmHg 97%
    08:00 0°C° 0.6 mm 1 mps 678 mmHg 97%
    09:00 0°C° 0.6 mm 1 mps 679 mmHg 97%
    10:00 +1°C° 0.6 mm 1 mps 680 mmHg 96%
    11:00 +1°C° 0.3 mm 1 mps 680 mmHg 95%
    12:00 +2°C° 0.3 mm 1 mps 680 mmHg 95%
    13:00 +2°C° 0.3 mm 1 mps 680 mmHg 94%
    14:00 +2°C° 0.1 mm 1 mps 680 mmHg 94%
    15:00 +2°C° 0.1 mm 1 mps 680 mmHg 94%
    16:00 +2°C° 0.1 mm 1 mps 680 mmHg 95%
    17:00 +2°C° 0 mm 1 mps 681 mmHg 95%
    18:00 +1°C° 0 mm 1 mps 681 mmHg 95%
    19:00 0°C° 0 mm 1 mps 681 mmHg 96%
    20:00 -1°C° 0 mm 1 mps 682 mmHg 94%
    21:00 -1°C° 0 mm 1 mps 682 mmHg 93%
    22:00 -2°C° 0 mm 1 mps 682 mmHg 92%
    23:00 -2°C° 0 mm 1 mps 682 mmHg 91%

    28 January, Sunday

    Time Temperature Precipitation Wind Pressure Humidity
    00:00 -2°C° 0 mm 1 mps 682 mmHg 89%
    01:00 -2°C° 0 mm 1 mps 682 mmHg 88%
    02:00 -2°C° 0 mm 1 mps 683 mmHg 87%
    03:00 -2°C° 0 mm 1 mps 683 mmHg 87%
    04:00 -2°C° 0 mm 1 mps 683 mmHg 86%
    05:00 -2°C° 0 mm 1 mps 683 mmHg 85%
    06:00 -2°C° 0 mm 1 mps 683 mmHg 85%
    07:00 -2°C° 0 mm 1 mps 683 mmHg 84%
    08:00 0°C° 0 mm 1 mps 684 mmHg 85%
    09:00 +1°C° 0 mm 1 mps 684 mmHg 85%
    10:00 +3°C° 0 mm 1 mps 685 mmHg 85%
    11:00 +4°C° 0 mm 1 mps 685 mmHg 88%
    12:00 +4°C° 0 mm 1 mps 685 mmHg 90%
    13:00 +5°C° 0 mm 1 mps 684 mmHg 93%
    14:00 +5°C° 0 mm 1 mps 684 mmHg 93%
    15:00 +5°C° 0 mm 1 mps 684 mmHg 93%
    16:00 +3°C° 0 mm 2 mps 684 mmHg 94%
    17:00 +4°C° 0 mm 1 mps 685 mmHg 90%
    18:00 +3°C° 0 mm 1 mps 685 mmHg 86%
    19:00 +3°C° 0 mm 1 mps 685 mmHg 83%
    20:00 +3°C° 0.1 mm 1 mps 685 mmHg 81%
    21:00 +3°C° 0.1 mm 1 mps 686 mmHg 80%
    22:00 +3°C° 0.1 mm 1 mps 686 mmHg 79%
    23:00 +3°C° 0.1 mm 1 mps 686 mmHg 80%
    Show more